[[{"header":{"parameterUnit":"m.s-1","parameterCategory":1,"la1":30.2991,"la2":30.254,"lo1":-89.0895,"lo2":-89.0444,"dy":0.0017,"dx":0.0017,"nx":28,"ny":28,"refTime":"2024-11-22T09:00:00:Z","depth":0,"parameterNumber":2,"parameterNumberName":"U-component_of_WINDS"},"data":[0,0,0,0,0,0,0,0,0,0,0,0,0,0,0,0,0,0,0,0,0,0,0,0,0,0,0,0,0,0,0,0,0,0,0,0,0,0,0,0,0,0,0,0,0,0,0,0,0,0,0,0,0,0,0,0,0,0,0.6162,0.6162,0,0.613,0.6129,0.6129,0.6129,0.6129,0.613,0.613,0.6095,0.6094,0.6092,0,0,0,0,0,0,0,0,0,0,0,0,0,0.6223,0.6222,0.6162,0.6162,0.6161,0.613,0.6129,0.6129,0.6129,0.6129,0.613,0.613,0.6095,0.6094,0.6092,0,0,0,0,0,0,0,0,0,0,0,0,0,0.6194,0.6221,0.6162,0.6157,0.6157,0.613,0.6129,0.6129,0.6129,0.6129,0.613,0.6131,0.6096,0.6094,0.6092,0.6067,0,0,0.6086,0.6085,0,0,0,0,0,0,0,0,0.6196,0.6192,0.6159,0.6158,0.6157,0.6134,0.6138,0.6108,0.6129,0.6139,0.613,0.6131,0.6107,0.6104,0.6097,0.6065,0.6064,0.6086,0.6085,0.6084,0.6083,0,0,0,0,0,0,0,0.6198,0.6193,0.6149,0.6158,0.6157,0.6157,0.6153,0.6132,0.612,0.6138,0.6138,0.6135,0.6107,0.6099,0.6096,0.6063,0.6086,0.6084,0.6083,0.6082,0.601,0.6009,0,0,0,0,0,0,0.6201,0.6195,0.615,0.6148,0.6178,0.6155,0.6151,0.6141,0.612,0.6118,0.6134,0.6135,0.6102,0.6098,0.6095,0.6064,0.6084,0.6082,0.6081,0.601,0.601,0.6009,0,0,0,0,0,0,0.6202,0.6197,0.6152,0.6171,0.6166,0.6153,0.6141,0.614,0.6132,0.6117,0.6115,0.6128,0.6102,0.6098,0.6074,0.6063,0.6081,0.6079,0.6011,0.601,0.6009,0.6002,0,0,0,0,0,0,0.6204,0.6197,0.6188,0.6171,0.6165,0.6131,0.6141,0.6139,0.6128,0.6129,0.6111,0.6108,0.6102,0.6077,0.6072,0.606,0.6078,0.6012,0.6011,0.601,0.6003,0.6001,0.5999,0,0,0,0,0,0.6206,0.6186,0.6187,0.6182,0.6153,0.6131,0.6127,0.6121,0.6127,0.6117,0.6108,0.6109,0.6065,0.6075,0.6069,0.6056,0.6013,0.6011,0.601,0.6004,0.6001,0.5999,0,0,0,0,0,0,0.6201,0.6184,0.6185,0.616,0.6147,0.6131,0.6118,0.6118,0.6103,0.6104,0.6097,0.6093,0.6069,0.6061,0.6072,0.6031,0.604,0.6037,0.6037,0.6034,0.6032,0.6034,0.6076,0,0,0,0,0,0.6197,0.6181,0.6167,0.6146,0.614,0.613,0.6121,0.6117,0.6104,0.6098,0.6087,0.6073,0.6056,0.6045,0.6029,0.6002,0.5998,0.5991,0.5989,0.5987,0.5984,0.5969,0.5966,0.6003,0.6003,0.6003,0,0,0.6188,0.6177,0.6168,0.6145,0.6135,0.6118,0.6126,0.6108,0.6095,0.6095,0.6072,0.6064,0.6048,0.6023,0.6011,0.6015,0.5973,0.5985,0.5984,0.5982,0.5967,0.5964,0.5961,0.6002,0.6003,0.6003,0,0,0.6164,0.6155,0.6136,0.6126,0.6111,0.6104,0.61,0.6084,0.6079,0.6056,0.6056,0.6041,0.6012,0.6001,0.5991,0.5964,0.5964,0.5959,0.5947,0.5933,0.593,0.5927,0.5916,0.5913,0.5957,0.5957,0.5957,0,0.6155,0.613,0.6126,0.6108,0.6098,0.6099,0.608,0.607,0.605,0.6042,0.6048,0.6012,0.6001,0.5973,0.5967,0.5959,0.5954,0.596,0.593,0.5928,0.5925,0.5915,0.5911,0.5956,0.5956,0.5956,0.5956,0,0.612,0.6103,0.609,0.6071,0.606,0.6041,0.6034,0.6023,0.6021,0.6015,0.5991,0.5979,0.596,0.5954,0.5951,0.5926,0.5928,0.5932,0.594,0.5921,0.5912,0.5908,0.5955,0.5955,0.5956,0.5956,0,0,0.609,0.607,0.6065,0.6057,0.604,0.6027,0.6009,0.5991,0.5982,0.5968,0.5952,0.5929,0.5932,0.5921,0.5918,0.5906,0.5885,0.5911,0.5911,0.5906,0.5855,0.5851,0.5847,0.5885,0.5885,0.5884,0.5856,0,0.6063,0.6031,0.6027,0.5998,0.5982,0.5983,0.5967,0.5955,0.5949,0.5934,0.5927,0.591,0.5917,0.591,0.5898,0.589,0.5874,0.5892,0.5869,0.5869,0.5872,0.5842,0.5838,0.5812,0.5852,0.5852,0.5851,0,0.6027,0.6013,0.5983,0.5969,0.5962,0.5948,0.5932,0.5918,0.5905,0.5901,0.589,0.5889,0.587,0.588,0.5853,0.5866,0.5857,0.5851,0.585,0.5846,0.5858,0.5837,0.5804,0.5799,0.5845,0.5846,0.5846,0,0.6007,0.5981,0.5959,0.5952,0.5936,0.5926,0.5919,0.5906,0.5896,0.5882,0.5875,0.5859,0.585,0.5837,0.5832,0.584,0.5805,0.5815,0.5801,0.5801,0.5792,0.5792,0.5756,0.5789,0.5789,0.5789,0.5789,0,0.5976,0.5957,0.595,0.5937,0.5916,0.5912,0.5891,0.5884,0.5874,0.5859,0.5859,0.5845,0.5839,0.5824,0.5819,0.5798,0.5794,0.579,0.5789,0.5789,0.5789,0.5782,0.5783,0.5788,0.5788,0.5788,0.5788,0,0.5949,0.5944,0.592,0.5908,0.5904,0.5889,0.5878,0.5865,0.5859,0.5841,0.5836,0.5827,0.581,0.5803,0.5782,0.5779,0.5753,0.5754,0.5758,0.5757,0.5743,0.5744,0.5699,0.5693,0.5731,0.573,0.573,0,0.5929,0.5915,0.5901,0.5891,0.5884,0.5868,0.5858,0.5855,0.5844,0.5828,0.5817,0.58,0.5786,0.5758,0.5749,0.5733,0.5733,0.5718,0.573,0.5731,0.5731,0.5732,0.573,0.5715,0.5715,0.5715,0.5714,0,0.5894,0.5893,0.5878,0.5863,0.5851,0.5839,0.5827,0.5819,0.5814,0.5802,0.5784,0.5774,0.5752,0.5735,0.5719,0.5711,0.5711,0.5711,0.5707,0.5706,0.5708,0.5706,0.575,0.5712,0.5712,0.5712,0.5712,0.5712,0.587,0.5857,0.5845,0.5829,0.582,0.581,0.5797,0.579,0.5776,0.5758,0.5757,0.5738,0.5726,0.5704,0.5696,0.5681,0.5684,0.5678,0.5676,0.5675,0.5673,0.5712,0.5678,0.5678,0.5678,0.5678,0.5678,0,0.5834,0.5827,0.5812,0.5796,0.5784,0.5787,0.5774,0.5763,0.5747,0.5736,0.5722,0.5702,0.5686,0.5677,0.566,0.565,0.565,0.5645,0.5645,0.5643,0.5671,0.5676,0.5646,0.5646,0.5646,0.5646,0.5646,0.5646,0.5813,0.5792,0.5789,0.5763,0.5756,0.5738,0.5731,0.5721,0.5712,0.5689,0.5676,0.5671,0.566,0.5643,0.5628,0.5626,0.562,0.5615,0.5613,0.5638,0.5641,0.5645,0.5649,0.5614,0.5614,0.5586,0.5586,0.5586]},{"header":{"parameterUnit":"m.s-1","parameterCategory":1,"la1":30.2991,"la2":30.254,"lo1":-89.0895,"lo2":-89.0444,"dy":0.0017,"dx":0.0017,"nx":28,"ny":28,"refTime":"2024-11-22T09:00:00:Z","depth":0,"parameterNumber":3,"parameterNumberName":"V-component_of_WINDS"},"data":[0,0,0,0,0,0,0,0,0,0,0,0,0,0,0,0,0,0,0,0,0,0,0,0,0,0,0,0,0,0,0,0,0,0,0,0,0,0,0,0,0,0,0,0,0,0,0,0,0,0,0,0,0,0,0,0,0,0,-5.7068,-5.7069,0,-5.72,-5.7201,-5.7203,-5.7168,-5.7165,-5.7162,-5.716,-5.729,-5.7296,-5.7302,0,0,0,0,0,0,0,0,0,0,0,0,0,-5.6783,-5.6788,-5.7068,-5.707,-5.7071,-5.72,-5.7201,-5.7203,-5.7168,-5.7165,-5.7162,-5.7159,-5.7288,-5.7295,-5.7302,0,0,0,0,0,0,0,0,0,0,0,0,0,-5.6909,-5.679,-5.7068,-5.7069,-5.7071,-5.7199,-5.7201,-5.7204,-5.7169,-5.7165,-5.7161,-5.7157,-5.7286,-5.7294,-5.7303,-5.7436,0,0,-5.733,-5.7334,0,0,0,0,0,0,0,0,-5.6902,-5.692,-5.7067,-5.707,-5.7071,-5.7163,-5.7148,-5.7281,-5.717,-5.7131,-5.716,-5.7155,-5.7251,-5.7262,-5.7295,-5.7442,-5.7448,-5.7331,-5.7336,-5.734,-5.7343,0,0,0,0,0,0,0,-5.6894,-5.6914,-5.712,-5.707,-5.7072,-5.7062,-5.7076,-5.7173,-5.7211,-5.7134,-5.7132,-5.7149,-5.7251,-5.7287,-5.7298,-5.745,-5.7331,-5.7339,-5.7344,-5.7348,-5.7715,-5.7719,0,0,0,0,0,0,-5.6884,-5.6907,-5.7116,-5.7124,-5.6976,-5.7071,-5.7086,-5.7138,-5.721,-5.7218,-5.7152,-5.7146,-5.7274,-5.7288,-5.7303,-5.7465,-5.734,-5.7348,-5.7353,-5.771,-5.7716,-5.772,0,0,0,0,0,0,-5.6878,-5.6903,-5.711,-5.7015,-5.7041,-5.708,-5.7138,-5.7142,-5.7178,-5.7223,-5.723,-5.7182,-5.7271,-5.729,-5.7404,-5.7469,-5.7352,-5.736,-5.7705,-5.7712,-5.7718,-5.779,0,0,0,0,0,0,-5.687,-5.6901,-5.6953,-5.7017,-5.7046,-5.7211,-5.7142,-5.7148,-5.7194,-5.7189,-5.7253,-5.726,-5.727,-5.7391,-5.7413,-5.7479,-5.7367,-5.7699,-5.7708,-5.7716,-5.7782,-5.7798,-5.7812,0,0,0,0,0,-5.686,-5.6966,-5.6956,-5.6981,-5.7112,-5.7215,-5.7232,-5.7242,-5.72,-5.7252,-5.7281,-5.7258,-5.7458,-5.7403,-5.7427,-5.7497,-5.7695,-5.7706,-5.7715,-5.7775,-5.7795,-5.7812,0,0,0,0,0,0,-5.6907,-5.6975,-5.6963,-5.7094,-5.7149,-5.7209,-5.7275,-5.7262,-5.7329,-5.7321,-5.7329,-5.7344,-5.7461,-5.749,-5.7427,-5.7631,-5.757,-5.7586,-5.7608,-5.7627,-5.7642,-5.7633,-5.7375,0,0,0,0,0,-5.6933,-5.7012,-5.7066,-5.7176,-5.7205,-5.7235,-5.728,-5.7284,-5.7341,-5.7363,-5.7401,-5.7456,-5.7531,-5.758,-5.7652,-5.7786,-5.78,-5.7846,-5.7861,-5.7873,-5.7886,-5.7961,-5.7982,-5.7753,-5.7753,-5.7753,0,0,-5.6986,-5.7033,-5.7083,-5.7187,-5.723,-5.7312,-5.7255,-5.7343,-5.7403,-5.7376,-5.7487,-5.7516,-5.7578,-5.7703,-5.776,-5.7731,-5.7953,-5.7886,-5.7895,-5.7902,-5.7973,-5.7995,-5.8014,-5.776,-5.7759,-5.7758,0,0,-5.7127,-5.717,-5.7267,-5.7312,-5.7379,-5.7399,-5.7422,-5.7485,-5.7504,-5.7616,-5.7598,-5.7668,-5.7798,-5.7843,-5.7883,-5.8042,-5.8024,-5.8065,-5.8144,-5.8217,-5.8235,-5.8251,-5.8309,-5.833,-5.8078,-5.8078,-5.8078,0,-5.7185,-5.7308,-5.7318,-5.7409,-5.7456,-5.7437,-5.7536,-5.7578,-5.7664,-5.7697,-5.7663,-5.7827,-5.7866,-5.8003,-5.8042,-5.8074,-5.8102,-5.8058,-5.8232,-5.8248,-5.8263,-5.8319,-5.834,-5.8083,-5.8082,-5.8082,-5.8081,0,-5.7377,-5.7463,-5.7533,-5.762,-5.7674,-5.7768,-5.7792,-5.7846,-5.7844,-5.7867,-5.7982,-5.8029,-5.8111,-5.8144,-5.8142,-5.828,-5.8261,-5.8229,-5.8169,-5.829,-5.8342,-5.8363,-5.809,-5.8088,-5.8086,-5.8085,0,0,-5.755,-5.7643,-5.7669,-5.7709,-5.7782,-5.7848,-5.7941,-5.8023,-5.807,-5.8129,-5.8208,-5.8319,-5.8291,-5.8337,-5.834,-5.8403,-5.8529,-5.8365,-5.8366,-5.8395,-5.8686,-5.871,-5.8734,-5.8517,-5.8521,-5.8524,-5.8681,0,-5.7698,-5.7865,-5.7877,-5.8027,-5.8107,-5.809,-5.8172,-5.8225,-5.8249,-5.8319,-5.8345,-5.8424,-5.8381,-5.8409,-5.8471,-5.85,-5.8587,-5.8489,-5.859,-5.8593,-5.8577,-5.8761,-5.8787,-5.8933,-5.8701,-5.8705,-5.8707,0,-5.7893,-5.7962,-5.8121,-5.8184,-5.8218,-5.8291,-5.8369,-5.8436,-5.8496,-5.8509,-5.8561,-5.8556,-5.8651,-5.8587,-5.8718,-5.8651,-5.8693,-5.8714,-5.872,-5.8731,-5.8659,-5.8779,-5.8979,-5.9002,-5.8739,-5.8737,-5.8734,0,-5.8006,-5.8138,-5.825,-5.8285,-5.8361,-5.8413,-5.8447,-5.8504,-5.8553,-5.8619,-5.8652,-5.8728,-5.877,-5.8828,-5.8844,-5.8795,-5.8975,-5.8912,-5.8989,-5.8989,-5.9029,-5.9026,-5.9241,-5.9053,-5.9053,-5.9052,-5.9052,0,-5.8171,-5.8269,-5.8303,-5.8372,-5.8481,-5.8494,-5.8602,-5.8632,-5.8683,-5.8757,-5.8746,-5.8816,-5.8831,-5.8904,-5.8916,-5.9024,-5.9042,-5.9056,-5.9058,-5.9058,-5.9057,-5.9086,-5.9077,-5.9058,-5.9057,-5.9056,-5.9055,0,-5.8316,-5.8342,-5.8464,-5.8528,-5.8546,-5.8624,-5.8678,-5.8744,-5.8767,-5.8861,-5.8884,-5.892,-5.9005,-5.9026,-5.9127,-5.9135,-5.9263,-5.9255,-5.9244,-5.9244,-5.9321,-5.9314,-5.9563,-5.9597,-5.9386,-5.9388,-5.9389,0,-5.842,-5.8495,-5.8568,-5.8618,-5.8655,-5.8736,-5.8787,-5.8802,-5.8855,-5.893,-5.8987,-5.9072,-5.914,-5.9277,-5.9311,-5.9388,-5.9383,-5.9465,-5.9394,-5.9392,-5.9386,-5.9382,-5.939,-5.9478,-5.9481,-5.9482,-5.9484,0,-5.8603,-5.8613,-5.8687,-5.8768,-5.8829,-5.8893,-5.8953,-5.8994,-5.9018,-5.9078,-5.9166,-5.9219,-5.9324,-5.9408,-5.9486,-5.9519,-5.9506,-5.9506,-5.9528,-5.9529,-5.9521,-5.9528,-5.9282,-5.95,-5.9499,-5.9497,-5.9497,-5.9496,-5.8732,-5.8799,-5.8861,-5.8945,-5.8993,-5.905,-5.9116,-5.9149,-5.9223,-5.9311,-5.9315,-5.9411,-5.9469,-5.9574,-5.9612,-5.9686,-5.9661,-5.9693,-5.9701,-5.971,-5.9717,-5.9508,-5.97,-5.97,-5.9699,-5.9699,-5.9699,0,-5.8915,-5.8955,-5.9032,-5.9119,-5.9185,-5.9168,-5.9234,-5.9291,-5.9376,-5.9433,-5.9501,-5.9603,-5.9685,-5.9726,-5.9807,-5.9859,-5.9855,-5.988,-5.9877,-5.9885,-5.9734,-5.9708,-5.9882,-5.9882,-5.9882,-5.9882,-5.9882,-5.9882,-5.9019,-5.9133,-5.915,-5.9287,-5.9325,-5.9422,-5.9461,-5.9514,-5.9559,-5.9675,-5.9743,-5.977,-5.9821,-5.9906,-5.998,-5.999,-6.0021,-6.0049,-6.0056,-5.9914,-5.9896,-5.9878,-5.9853,-6.0055,-6.0056,-6.0201,-6.0203,-6.0204]}]]